THOR ABLESTAR DEB, 1522

Orbit data source: Space-Track

THOR ABLESTAR DEB, 1522 is space debris in LEO originally from a launch on Fri, 13 Aug 1965 UTC launched from the Air Force Western Test Range (AFWTR). Debris objects in space refer to the collection of defunct objects orbiting the Earth. Examples of debris include non-operational satellites, rocket bodies, and fragments generated from explosions, collisions, or faulty payload assembly.

Loading next visibility...
Identifier
1522, 1965-065L
Orbit
LEO
Country
Flag of USUS
Related business
Manufacturer
Unknown
Mission
Spacecraft
Bus & Motor
Unknown
Mass
Unknown
Launch date (UTC)
1965-08-13 (60 years ago)
Launch vehicle
Unknown
Launch site
Air Force Western Test Range (AFWTR)
Object type
Payload
Rocket body
Debris
Shape & HBR
Unknown shape, 0.4 m
Radar Cross Section
Medium (>0.1 m² and <1 m²)

Expand to show TLE details & history
Last TLE update: 13 hours ago

TLE from 13 hours ago
0 THOR ABLESTAR DEB
1 01522U 65065L   25308.79366345  .00000057  00000-0  94911-4 0  9993
2 01522  90.0759 124.8693 0071695 156.5126 215.5722 13.33834230929889
Epoch: 2025-11-04T19:02Z
TLE epoch observation values (Epoch: 2025-11-04T19:02:52.522Z)
Latitude
11.56459°
Longitude
154.85942°
Altitude
1,178.447 km
Speed
7.244 km/s
True Right ascension
08h 19m 24s
True Declination
11° 30' 04"
Sunlit
Object was in daylight at epoch
Visualization orbit readout
Latitude
Unknown
Longitude
Unknown
Altitude
Unknown
Speed
Unknown
Apparent Right ascension
Unknown
Apparent Declination
Unknown
Sunlit
N/A
Visualization observer readout
Local Sidereal Time
04:15:33
Azimuth
Unknown
Elevation
Unknown
Doppler factor
Unknown
Orbital elements
Apogee altitude
1,183.234 km
Perigee altitude
1,075.584 km
Semi-major axis
7,507.546 km
Eccentricity
0.00717
Inclination
90.0759°
RAAN
124.8693°
Arg. of periapsis
156.5126°
True anomaly
215.09774°
Mean anomaly
215.5722°
Eccentric anomaly
215.33462°
Mean motion
3.33654 °/min
Orbital period
107.9 mins
BSTAR
0.000094911
Loading maneuver chart data...
Computing Atmospheric mass density...
Loading historical data...
Loading historical data...
Loading historical data...
Loading historical data...
Loading historical data...
Loading historical data...
Loading historical data...

Documentation

Showing up to 5 results
|